• In Uzbekistan
  • List of Countries
  • For 7 days
  • Water Temperature
  • Satellite Maps
  • Weather Map
  • Weather Widgets
  • user-avatar
    Login

    Hourly Weather Andzhan

    Today, 19 February, Monday

    Time Temperature Precipitation Wind Pressure Humidity
    00:00 +3°C° 0 mm 2 mps 726 mmHg 50%
    01:00 +3°C° 0 mm 2 mps 726 mmHg 49%
    02:00 +2°C° 0 mm 2 mps 726 mmHg 49%
    03:00 +2°C° 0 mm 2 mps 726 mmHg 48%
    04:00 +2°C° 0 mm 2 mps 726 mmHg 47%
    05:00 +1°C° 0 mm 3 mps 725 mmHg 46%
    06:00 +1°C° 0 mm 3 mps 725 mmHg 46%
    07:00 +1°C° 0 mm 3 mps 725 mmHg 46%
    08:00 +1°C° 0 mm 3 mps 725 mmHg 45%
    09:00 +3°C° 0 mm 3 mps 724 mmHg 44%
    10:00 +6°C° 0 mm 2 mps 722 mmHg 42%
    11:00 +8°C° 0 mm 2 mps 721 mmHg 41%
    12:00 +9°C° 0 mm 2 mps 721 mmHg 39%
    13:00 +10°C° 0 mm 2 mps 720 mmHg 37%
    14:00 +12°C° 0 mm 2 mps 719 mmHg 36%
    15:00 +12°C° 0 mm 2 mps 719 mmHg 37%
    16:00 +12°C° 0 mm 1 mps 719 mmHg 38%
    17:00 +11°C° 0 mm 1 mps 719 mmHg 40%
    18:00 +11°C° 0 mm 1 mps 720 mmHg 41%
    19:00 +10°C° 0 mm 1 mps 720 mmHg 42%
    20:00 +8°C° 0 mm 2 mps 720 mmHg 43%
    21:00 +8°C° 0 mm 2 mps 720 mmHg 43%
    22:00 +8°C° 0 mm 2 mps 720 mmHg 43%
    23:00 +9°C° 0 mm 1 mps 720 mmHg 43%

    Tomorrow, 20 February, Tuesday

    Time Temperature Precipitation Wind Pressure Humidity
    00:00 +9°C° 0 mm 1 mps 720 mmHg 44%
    01:00 +8°C° 0 mm 1 mps 720 mmHg 44%
    02:00 +8°C° 0 mm 1 mps 719 mmHg 44%
    03:00 +8°C° 0 mm 2 mps 719 mmHg 44%
    04:00 +8°C° 0 mm 2 mps 719 mmHg 44%
    05:00 +8°C° 0 mm 2 mps 719 mmHg 45%
    06:00 +8°C° 0 mm 2 mps 719 mmHg 45%
    07:00 +8°C° 0 mm 2 mps 719 mmHg 45%
    08:00 +8°C° 0 mm 2 mps 719 mmHg 45%
    09:00 +10°C° 0 mm 2 mps 718 mmHg 43%
    10:00 +13°C° 0 mm 2 mps 717 mmHg 41%
    11:00 +15°C° 0 mm 2 mps 716 mmHg 39%
    12:00 +16°C° 0 mm 2 mps 716 mmHg 38%
    13:00 +17°C° 0 mm 2 mps 715 mmHg 37%
    14:00 +18°C° 0 mm 2 mps 715 mmHg 36%
    15:00 +18°C° 0 mm 1 mps 715 mmHg 38%
    16:00 +16°C° 0 mm 1 mps 714 mmHg 41%
    17:00 +16°C° 0 mm 1 mps 714 mmHg 43%
    18:00 +15°C° 0 mm 1 mps 715 mmHg 45%
    19:00 +13°C° 0 mm 1 mps 715 mmHg 47%
    20:00 +12°C° 0 mm 1 mps 715 mmHg 49%
    21:00 +12°C° 0 mm 1 mps 715 mmHg 50%
    22:00 +11°C° 0 mm 1 mps 715 mmHg 51%
    23:00 +11°C° 0 mm 1 mps 715 mmHg 52%

    Day after tomorrow, 21 February, Wednesday

    Time Temperature Precipitation Wind Pressure Humidity
    00:00 +9°C° 0 mm 2 mps 716 mmHg 57%
    01:00 +9°C° 0 mm 2 mps 716 mmHg 61%
    02:00 +8°C° 0 mm 2 mps 716 mmHg 66%
    03:00 +8°C° 0.1 mm 2 mps 717 mmHg 68%
    04:00 +8°C° 0.1 mm 2 mps 717 mmHg 70%
    05:00 +8°C° 0.1 mm 2 mps 718 mmHg 72%
    06:00 +8°C° 0.5 mm 2 mps 719 mmHg 75%
    07:00 +8°C° 0.5 mm 2 mps 719 mmHg 78%
    08:00 +7°C° 0.5 mm 2 mps 720 mmHg 81%
    09:00 +8°C° 0.6 mm 2 mps 720 mmHg 81%
    10:00 +8°C° 0.6 mm 2 mps 720 mmHg 82%
    11:00 +8°C° 0.6 mm 2 mps 720 mmHg 82%
    12:00 +9°C° 0.2 mm 1 mps 720 mmHg 81%
    13:00 +9°C° 0.2 mm 1 mps 720 mmHg 79%
    14:00 +10°C° 0.2 mm 1 mps 720 mmHg 78%
    15:00 +10°C° 0.1 mm 1 mps 720 mmHg 77%
    16:00 +10°C° 0.1 mm 1 mps 720 mmHg 77%
    17:00 +10°C° 0.1 mm 1 mps 721 mmHg 77%
    18:00 +9°C° 0 mm 1 mps 721 mmHg 79%
    19:00 +9°C° 0 mm 1 mps 722 mmHg 82%
    20:00 +8°C° 0 mm 1 mps 723 mmHg 85%
    21:00 +8°C° 0 mm 1 mps 723 mmHg 85%
    22:00 +8°C° 0 mm 1 mps 723 mmHg 85%
    23:00 +7°C° 0 mm 1 mps 723 mmHg 85%

    22 February, Thursday

    Time Temperature Precipitation Wind Pressure Humidity
    00:00 +7°C° 0 mm 1 mps 724 mmHg 83%
    01:00 +7°C° 0 mm 1 mps 724 mmHg 81%
    02:00 +7°C° 0 mm 1 mps 724 mmHg 79%
    03:00 +7°C° 0 mm 1 mps 724 mmHg 77%
    04:00 +6°C° 0 mm 1 mps 724 mmHg 75%
    05:00 +6°C° 0 mm 1 mps 724 mmHg 73%
    06:00 +7°C° 0 mm 1 mps 724 mmHg 71%
    07:00 +7°C° 0 mm 1 mps 724 mmHg 69%
    08:00 +7°C° 0 mm 1 mps 724 mmHg 67%
    09:00 +9°C° 0 mm 1 mps 723 mmHg 62%
    10:00 +10°C° 0 mm 1 mps 722 mmHg 57%
    11:00 +12°C° 0 mm 1 mps 721 mmHg 52%
    12:00 +12°C° 0 mm 1 mps 720 mmHg 49%
    13:00 +13°C° 0 mm 1 mps 720 mmHg 46%
    14:00 +14°C° 0 mm 1 mps 719 mmHg 44%
    15:00 +14°C° 0 mm 1 mps 719 mmHg 45%
    16:00 +14°C° 0 mm 1 mps 720 mmHg 45%
    17:00 +14°C° 0 mm 1 mps 720 mmHg 46%
    18:00 +13°C° 0 mm 1 mps 720 mmHg 49%
    19:00 +12°C° 0 mm 1 mps 721 mmHg 52%
    20:00 +11°C° 0 mm 1 mps 721 mmHg 55%
    21:00 +10°C° 0 mm 1 mps 721 mmHg 55%
    22:00 +9°C° 0 mm 2 mps 722 mmHg 55%
    23:00 +9°C° 0 mm 2 mps 722 mmHg 55%

    23 February, Friday

    Time Temperature Precipitation Wind Pressure Humidity
    00:00 +8°C° 0 mm 2 mps 722 mmHg 55%
    01:00 +8°C° 0 mm 2 mps 721 mmHg 54%
    02:00 +8°C° 0 mm 2 mps 721 mmHg 54%
    03:00 +7°C° 0 mm 2 mps 721 mmHg 53%
    04:00 +7°C° 0 mm 2 mps 721 mmHg 52%
    05:00 +7°C° 0 mm 2 mps 721 mmHg 51%
    06:00 +8°C° 0 mm 1 mps 720 mmHg 51%
    07:00 +8°C° 0 mm 1 mps 720 mmHg 50%
    08:00 +9°C° 0 mm 1 mps 720 mmHg 49%
    09:00 +10°C° 0 mm 1 mps 720 mmHg 46%
    10:00 +11°C° 0 mm 1 mps 719 mmHg 42%
    11:00 +13°C° 0 mm 1 mps 718 mmHg 39%
    12:00 +13°C° 0 mm 1 mps 718 mmHg 37%
    13:00 +14°C° 0 mm 1 mps 718 mmHg 35%
    14:00 +14°C° 0 mm 1 mps 718 mmHg 34%
    15:00 +14°C° 0 mm 1 mps 718 mmHg 35%
    16:00 +14°C° 0 mm 1 mps 718 mmHg 36%
    17:00 +14°C° 0 mm 1 mps 719 mmHg 37%
    18:00 +13°C° 0 mm 1 mps 719 mmHg 39%
    19:00 +12°C° 0 mm 1 mps 720 mmHg 42%
    20:00 +11°C° 0 mm 1 mps 721 mmHg 44%
    21:00 +11°C° 0 mm 1 mps 721 mmHg 45%
    22:00 +10°C° 0 mm 1 mps 721 mmHg 46%
    23:00 +10°C° 0 mm 1 mps 721 mmHg 47%

    24 February, Saturday

    Time Temperature Precipitation Wind Pressure Humidity
    00:00 +10°C° 0 mm 1 mps 721 mmHg 48%
    01:00 +9°C° 0 mm 1 mps 722 mmHg 48%
    02:00 +8°C° 0 mm 2 mps 722 mmHg 49%
    03:00 +8°C° 0 mm 2 mps 722 mmHg 50%
    04:00 +7°C° 0 mm 2 mps 722 mmHg 50%
    05:00 +7°C° 0 mm 2 mps 723 mmHg 51%
    06:00 +8°C° 0 mm 2 mps 723 mmHg 50%
    07:00 +8°C° 0 mm 2 mps 723 mmHg 50%
    08:00 +8°C° 0 mm 2 mps 723 mmHg 49%
    09:00 +10°C° 0 mm 2 mps 722 mmHg 44%
    10:00 +13°C° 0 mm 2 mps 722 mmHg 39%
    11:00 +15°C° 0 mm 2 mps 721 mmHg 34%
    12:00 +16°C° 0 mm 2 mps 721 mmHg 33%
    13:00 +17°C° 0 mm 2 mps 720 mmHg 31%
    14:00 +17°C° 0 mm 2 mps 720 mmHg 30%
    15:00 +18°C° 0 mm 1 mps 720 mmHg 32%
    16:00 +18°C° 0 mm 1 mps 720 mmHg 34%
    17:00 +18°C° 0 mm 1 mps 720 mmHg 36%
    18:00 +16°C° 0 mm 1 mps 720 mmHg 38%
    19:00 +14°C° 0 mm 1 mps 720 mmHg 41%
    20:00 +13°C° 0 mm 2 mps 721 mmHg 44%
    21:00 +13°C° 0 mm 2 mps 721 mmHg 45%
    22:00 +13°C° 0 mm 1 mps 721 mmHg 46%
    23:00 +12°C° 0 mm 1 mps 721 mmHg 46%
    Show more